Location: Asheville, NC
(35.6000°N, 82.5500°W)
Time: 19:47:00
(UTC-04:00)

Vanguard 1 - Pass Details

Date: 09 March 2018
Orbit: 650 x 3833 km, 34.3° (Epoch: 23 June)

Event Time Altitude Azimuth Distance (km) Brightness Sun altitude
Rises 07:46:26 0° 208° (SSW) 7,027 14.3 10.6°
Reaches altitude 10° 07:51:17 10° 201° (SSW) 6,336 14.2 11.6°
Maximum altitude 08:10:39 40° 140° (SE) 4,861 14.6 15.4°
Drops below altitude 10° 08:29:47 10° 80° (E) 6,344 15.4 19.1°
Sets 08:34:31 0° 74° (ENE) 7,047 15.3 20.0°
